Regional Weather Roundup
Issued by NWS

Home | Current Version | Previous Version | Text Only | Print | Product List | Glossary Off
Versions: 1 2 3 4 5 6 7 8 9 10 11 12 13 14 15 16 17 18 19 20 21 22 23 24 25 26 27 28 29 30 31 32 33 34 35 36 37 38 39 40 41 42 43 44 45 46 47 48 49 50

785
ASUS43 KMPX 231901
RWRMN
WEATHER ROUNDUP FOR MINNESOTA
NATIONAL WEATHER SERVICE TWIN CITIES/CHANHASSEN MN
100 PM CST THU NOV 23 2017


NOTE: "FAIR" INDICATES FEW OR NO CLOUDS BELOW 12,000 FEET WITH NO
SIGNIFICANT WEATHER AND/OR OBSTRUCTIONS TO VISIBILITY. N/A MEANS
CURRENT SKY AND/OR WEATHER CONDITIONS ARE NOT AVAILABLE.

MNZ060>063-068>070-232000-
   Twin Cities Metro

CITY           SKY/WX    TMP DP  RH WIND       PRES   REMARKS
TWIN CITIES    SUNNY     41  22  46 SW5       29.88F
ST PAUL        SUNNY     41  21  44 SW8       29.89F
CRYSTAL        SUNNY     41  19  41 SW8       29.86F
BLAINE         SUNNY     43  21  42 S8        29.87F
LAKEVILLE      SUNNY     43  23  45 W7        29.88F
EDEN PRAIRIE   SUNNY     41  21  44 S5        29.87F
SOUTH ST PAUL  SUNNY     43  20  40 SW5       29.88F
LAKE ELMO      FAIR      41  23  48 SW6       29.88F
$$
MNZ001>005-007-008-013>017-022>024-027-028-232000-
   Northwest Minnesota

CITY           SKY/WX    TMP DP  RH WIND       PRES   REMARKS
BEMIDJI        CLOUDY    26  25  97 S5        29.76F WCI  20
HALLOCK        CLOUDY    30  28  93 S15       29.67F WCI  19
ROSEAU         CLOUDY    28  25  86 S7        29.71F WCI  21
WARROAD        CLOUDY    28  21  74 S3        29.72F
THIEF RVR FALL CLOUDY    28  28 100 S13       29.72F FOG     WCI  18
CROOKSTON      PTSUNNY   34  30  86 S16       29.70F WCI  23
FOSSTON        CLOUDY    28  27  93 SE7       29.73F FOG     WCI  21
DETROIT LAKES  MOSUNNY   32  30  93 SE10      29.75F WCI  24
MOORHEAD       MOSUNNY   36  27  69 S12       29.74F
PARK RAPIDS    SUNNY     36  27  69 S7        29.75F
MAHNOMEN       FAIR      32  29  87 SE8       29.72F WCI  25
$$
MNZ006-009>011-018-025>026-232000-
   North Central Minnesota

CITY           SKY/WX    TMP DP  RH WIND       PRES   REMARKS
BAUDETTE       MOSUNNY   28  21  75 S8        29.72F WCI  20
FLAG ISLAND    CLOUDY    25  21  86 S14       29.70F WCI  13
INTL FALLS     CLOUDY    28  20  71 SW5       29.75F WCI  23
WASKISH        CLOUDY    27  25  93 MISG      29.75F
BIG FORK       PTSUNNY   36  25  64 S5        29.76F
LONGVILLE      SUNNY     36  21  55 SW5       29.78F
GRAND RAPIDS   PTSUNNY   33  21  61 S6        29.80F WCI  28
CRANE LAKE     MOSUNNY   28  19  69 S3        29.78F
ORR            SUNNY     30  19  64 S3        29.74F
COOK           CLOUDY    30  21  69 S5        29.77F WCI  25
WALKER         MOCLDY    32  24  72 S3        29.76F
$$
MNZ012-019>021-037-232000-
   Northeast Minnesota

CITY           SKY/WX    TMP DP  RH WIND       PRES   REMARKS
DULUTH         SUNNY     33  25  72 W9        29.78F WCI  25
ELY            SUNNY     30  19  64 SW9       29.77F WCI  22
HIBBING        SUNNY     32  21  64 VRB3      29.77F
EVELETH        SUNNY     32  21  63 SW5       29.79F WCI  28
DULUTH HARBOR  SUNNY     36  27  69 SW12      29.82F
TWO HARBORS    SUNNY     41  27  56 SW3       29.78F
GRAND MARAIS     N/A     33  25  72 SW10      29.80F WCI  25
G MARAIS ARPRT CLOUDY    28  16  59 SW3       29.74F
$$
MNZ029>031-032-039>041-046>048-054>057-064-232000-
   West Central Minnesota

CITY           SKY/WX    TMP DP  RH WIND       PRES   REMARKS
FERGUS FALLS   SUNNY     39  25  56 S13       29.78F
WHEATON        CLOUDY    45  27  49 SE10      29.77F
MORRIS         SUNNY     45 N/A N/A S15       29.79F
ALEXANDRIA     SUNNY     40  26  57 S10       29.79F
ELBOW LAKE     FAIR      41  26  55 S15       29.77F
WADENA         SUNNY     41  27  56 S6        29.76F
GLENWOOD       SUNNY     41  27  56 S10       29.80F
APPLETON       CLOUDY    45  27  49 S8        29.80F
BENSON         SUNNY     45  25  45 S12       29.82F
ORTONVILLE     CLOUDY    45  28  53 NE8       29.77F
MADISON        CLOUDY    52  34  50 S8        29.79F
WILLMAR        FAIR      45  27  49 S6        29.84F
$$
MNZ033>034-036-042>043-049>051-058-059-232000-
   Central Minnesota

CITY           SKY/WX    TMP DP  RH WIND       PRES   REMARKS
ST CLOUD       SUNNY     42  23  46 SW9       29.84F
SAUK CENTRE    FAIR      42  27  56 S7        29.81F
PAYNESVILLE    SUNNY     42  27  54 S8        29.83F
AITKIN         SUNNY     36  21  55 S6        29.79F
PINE RIVER     SUNNY     36  25  64 SW5       29.82F
BRAINERD       SUNNY     38  24  57 S9        29.81F
STAPLES        SUNNY     41  25  52 S7        29.78F
LITTLE FALLS   SUNNY     39  16  38 SW9       29.83F
LITCHFIELD     SUNNY     45  27  49 SW5       29.86F
BUFFALO        SUNNY     41  22  47 SW7       29.87F
MAPLE LAKE     SUNNY     43  26  50 SW7       29.87F
HUTCHINSON     CLOUDY    44  26  49 S7        29.87F
$$
MNZ037-044-045-052-053-232000-
   East Central Minnesota

CITY           SKY/WX    TMP DP  RH WIND       PRES   REMARKS
PRINCETON      SUNNY     43  21  42 S7        29.85F
MORA           SUNNY     36  23  60 SW7       29.87F
CAMBRIDGE      SUNNY     43  25  49 SW6       29.85F
RUSH CITY      SUNNY     37  23  56 S7        29.85F
MOOSE LAKE     SUNNY     36  23  60 SW8       29.80F
HINCKLEY       FAIR      37  27  65 SW7       29.84F
CLOQUET        SUNNY     34  23  64 SW8       29.79F WCI  27
MCGREGOR       SUNNY     36  27  69 S7        29.80F
$$
MNZ071>073-080-081-089-090-097-098-232000-
   Southwest Minnesota

CITY           SKY/WX    TMP DP  RH WIND       PRES   REMARKS
MONTEVIDEO     CLOUDY    45  27  49 SW8       29.82F
GRANITE FALLS  CLOUDY    46  29  51 SE10      29.84F
CANBY          CLOUDY    53  33  46 SW7       29.80F
MARSHALL       CLOUDY    53  33  46 SW10      29.82F
REDWOOD FALLS  SUNNY     46  25  43 S10       29.84F
OLIVIA         SUNNY     43  27  52 S8        29.83F
PIPESTONE      CLOUDY    50  30  46 SW12      29.84F
WINDOM         CLOUDY    48  28  46 S12       29.87F
WORTHINGTON    CLOUDY    50  31  48 SW14      29.87F
JACKSON        CLOUDY    46  28  49 SW12      29.90F
SLAYTON        MOSUNNY   49  32  51 SW16      29.87F
$$
MNZ065>067-074>077-082>085-091>093-232000-
   South Central Minnesota

CITY           SKY/WX    TMP DP  RH WIND       PRES   REMARKS
MANKATO        SUNNY     42  24  49 SW8       29.90F
NEW ULM        SUNNY     43  25  49 CALM      29.88F
ST JAMES       SUNNY     46  27  46 SW7       29.89F
FAIRMONT       SUNNY     46  28  49 SW9       29.90F
GLENCOE        SUNNY     43  25  48 S6        29.86F
FARIBAULT      SUNNY     43  23  45 W5        29.89F
OWATONNA       SUNNY     45  25  45 CALM      29.89F
WASECA         SUNNY     43  23  45 W5        29.91S
ALBERT LEA     SUNNY     45  21  39 S3        29.89F
$$
MNZ078>079-086>088-094>096-232000-
   Southeast Minnesota

CITY           SKY/WX    TMP DP  RH WIND       PRES   REMARKS
ROCHESTER      SUNNY     44  24  45 VRB3      29.89F
RED WING       SUNNY     41  16  36 SW3       29.88F
STANTON        SUNNY     43  22  44 SW6       29.88F
DODGE CENTER   SUNNY     43  21  42 CALM      29.88F
WINONA         SUNNY     41  23  48 CALM      29.91F
AUSTIN         SUNNY     43  21  42 W3        29.89F
PRESTON        SUNNY     42  21  44 NW5       29.90F
$$
ABBREVIATIONS USED IN REMARKS
   TC - TEMPERATURES IN CELSIUS
  WCI - WIND CHILL INDEX
   HX - HEAT INDEX
  VSB - VISIBILITY
$$




USA.gov is the U.S. government's official web portal to all federal, state and local government web resources and services.